TimeCDT,TemperatureF,Dew PointF,Humidity,Sea Level PressureIn,VisibilityMPH,Wind Direction,Wind SpeedMPH,Gust SpeedMPH,PrecipitationIn,Events,Conditions,WindDirDegrees,DateUTC
12:15 AM,61.9,61.0,97,30.08,10.0,Calm,Calm,-,N/A,,Clear,0,2013-07-29 05:15:00
12:35 AM,60.8,60.8,100,30.07,10.0,Calm,Calm,-,N/A,,Clear,0,2013-07-29 05:35:00
12:55 AM,60.3,60.3,100,30.07,10.0,Calm,Calm,-,N/A,,Clear,0,2013-07-29 05:55:00
1:15 AM,60.3,60.3,100,30.08,10.0,Calm,Calm,-,N/A,,Clear,0,2013-07-29 06:15:00
1:35 AM,60.3,60.3,100,30.08,10.0,Calm,Calm,-,N/A,,Clear,0,2013-07-29 06:35:00
1:55 AM,60.1,60.1,100,30.08,10.0,Calm,Calm,-,N/A,,Clear,0,2013-07-29 06:55:00
2:15 AM,60.3,60.3,100,30.09,10.0,Calm,Calm,-,N/A,,Clear,0,2013-07-29 07:15:00
2:55 AM,60.1,60.1,100,30.10,10.0,Calm,Calm,-,N/A,,Clear,0,2013-07-29 07:55:00
3:15 AM,60.3,60.3,100,30.10,10.0,Calm,Calm,-,N/A,,Clear,0,2013-07-29 08:15:00
3:55 AM,59.9,59.9,100,30.11,10.0,Calm,Calm,-,N/A,,Clear,0,2013-07-29 08:55:00
4:15 AM,59.4,59.4,100,30.11,10.0,Calm,Calm,-,N/A,,Clear,0,2013-07-29 09:15:00
4:55 AM,58.6,58.6,100,30.11,7.0,Calm,Calm,-,N/A,,Clear,0,2013-07-29 09:55:00
5:15 AM,58.5,58.5,100,30.12,10.0,Calm,Calm,-,N/A,,Clear,0,2013-07-29 10:15:00
5:35 AM,58.3,58.3,100,30.12,7.0,Calm,Calm,-,N/A,,Clear,0,2013-07-29 10:35:00
5:55 AM,58.3,58.3,100,30.13,5.0,Calm,Calm,-,N/A,,Clear,0,2013-07-29 10:55:00
6:15 AM,57.7,57.7,100,30.13,7.0,Calm,Calm,-,N/A,,Clear,0,2013-07-29 11:15:00
6:35 AM,58.6,58.6,100,30.13,10.0,Calm,Calm,-,N/A,,Clear,0,2013-07-29 11:35:00
6:55 AM,60.8,60.8,100,30.14,10.0,Calm,Calm,-,N/A,,Clear,0,2013-07-29 11:55:00
7:15 AM,63.9,63.0,97,30.14,10.0,Calm,Calm,-,N/A,,Clear,0,2013-07-29 12:15:00
7:35 AM,65.8,64.2,94,30.14,10.0,East,3.5,-,N/A,,Clear,80,2013-07-29 12:35:00
7:55 AM,67.1,65.1,93,30.15,10.0,Calm,Calm,-,N/A,,Scattered Clouds,0,2013-07-29 12:55:00
8:15 AM,69.1,66.2,91,30.15,10.0,Calm,Calm,-,N/A,,Mostly Cloudy,0,2013-07-29 13:15:00
8:35 AM,70.2,64.8,83,30.16,10.0,Calm,Calm,-,N/A,,Mostly Cloudy,0,2013-07-29 13:35:00
8:55 AM,71.1,64.0,78,30.16,10.0,Calm,Calm,-,N/A,,Clear,0,2013-07-29 13:55:00
9:15 AM,72.9,64.9,76,30.16,10.0,Calm,Calm,-,N/A,,Clear,0,2013-07-29 14:15:00
9:35 AM,72.9,61.5,67,30.17,10.0,Calm,Calm,-,N/A,,Clear,0,2013-07-29 14:35:00
9:55 AM,73.6,60.4,63,30.17,10.0,Calm,Calm,-,N/A,,Clear,0,2013-07-29 14:55:00
10:15 AM,73.8,60.6,63,30.17,10.0,Calm,Calm,-,N/A,,Scattered Clouds,0,2013-07-29 15:15:00
10:35 AM,75.2,59.5,58,30.17,10.0,Calm,Calm,-,N/A,,Clear,0,2013-07-29 15:35:00
10:55 AM,75.6,60.6,60,30.17,10.0,South,4.6,-,N/A,,Mostly Cloudy,170,2013-07-29 15:55:00
11:15 AM,75.7,60.1,58,30.17,10.0,South,3.5,-,N/A,,Mostly Cloudy,180,2013-07-29 16:15:00
11:35 AM,75.6,60.6,60,30.18,10.0,Calm,Calm,-,N/A,,Overcast,0,2013-07-29 16:35:00
11:55 AM,76.6,59.5,55,30.18,10.0,Calm,Calm,-,N/A,,Mostly Cloudy,0,2013-07-29 16:55:00
12:15 PM,76.1,58.8,55,30.18,10.0,SW,3.5,-,N/A,,Mostly Cloudy,220,2013-07-29 17:15:00
12:35 PM,76.6,58.6,54,30.18,10.0,Calm,Calm,-,N/A,,Overcast,0,2013-07-29 17:35:00
12:55 PM,77.2,59.4,54,30.17,10.0,South,4.6,-,N/A,,Scattered Clouds,190,2013-07-29 17:55:00
1:15 PM,76.3,60.3,57,30.17,10.0,South,3.5,-,N/A,,Scattered Clouds,170,2013-07-29 18:15:00
1:35 PM,77.2,59.4,54,30.17,10.0,South,4.6,-,N/A,,Clear,170,2013-07-29 18:35:00
1:55 PM,77.0,59.7,55,30.16,10.0,SSE,4.6,-,N/A,,Clear,160,2013-07-29 18:55:00
2:15 PM,77.4,59.0,53,30.16,10.0,South,4.6,-,N/A,,Clear,180,2013-07-29 19:15:00
2:35 PM,78.1,61.3,56,30.15,10.0,South,4.6,-,N/A,,Clear,180,2013-07-29 19:35:00
2:55 PM,77.9,59.7,53,30.15,10.0,South,3.5,-,N/A,,Clear,190,2013-07-29 19:55:00
3:15 PM,77.9,59.5,53,30.15,10.0,SE,4.6,-,N/A,,Clear,140,2013-07-29 20:15:00
3:35 PM,79.3,61.0,53,30.15,10.0,SSW,5.8,-,N/A,,Clear,210,2013-07-29 20:35:00
3:55 PM,77.9,59.9,54,30.15,10.0,Calm,Calm,-,N/A,,Clear,0,2013-07-29 20:55:00
4:15 PM,77.9,59.4,53,30.15,10.0,South,4.6,-,N/A,,Clear,190,2013-07-29 21:15:00
4:35 PM,78.1,60.8,55,30.15,10.0,South,5.8,-,N/A,,Clear,190,2013-07-29 21:35:00
4:55 PM,77.9,60.3,54,30.14,10.0,South,4.6,-,N/A,,Clear,170,2013-07-29 21:55:00
5:15 PM,77.5,60.6,56,30.14,10.0,ESE,3.5,-,N/A,,Clear,110,2013-07-29 22:15:00
5:35 PM,77.0,61.9,59,30.15,10.0,Calm,Calm,-,N/A,,Clear,0,2013-07-29 22:35:00
5:55 PM,76.5,61.3,59,30.15,10.0,Calm,Calm,-,N/A,,Clear,0,2013-07-29 22:55:00
6:15 PM,76.3,60.1,57,30.14,10.0,Calm,Calm,-,N/A,,Clear,0,2013-07-29 23:15:00
6:35 PM,75.9,59.4,56,30.15,10.0,Calm,Calm,-,N/A,,Clear,0,2013-07-29 23:35:00
6:55 PM,75.2,63.7,67,30.15,10.0,Calm,Calm,-,N/A,,Clear,0,2013-07-29 23:55:00
7:15 PM,73.9,63.0,68,30.15,10.0,Calm,Calm,-,N/A,,Clear,0,2013-07-30 00:15:00
7:35 PM,73.8,62.8,68,30.15,10.0,Calm,Calm,-,N/A,,Clear,0,2013-07-30 00:35:00
7:55 PM,70.9,63.9,78,30.14,10.0,Calm,Calm,-,N/A,,Clear,0,2013-07-30 00:55:00
8:15 PM,70.9,62.6,75,30.14,10.0,Calm,Calm,-,N/A,,Clear,0,2013-07-30 01:15:00
8:35 PM,68.9,63.0,81,30.15,10.0,Calm,Calm,-,N/A,,Clear,0,2013-07-30 01:35:00
8:55 PM,68.2,62.8,83,30.15,10.0,Calm,Calm,-,N/A,,Clear,0,2013-07-30 01:55:00
9:15 PM,67.8,62.6,83,30.15,10.0,Calm,Calm,-,N/A,,Clear,0,2013-07-30 02:15:00
9:35 PM,67.1,62.8,86,30.16,7.0,Calm,Calm,-,N/A,,Clear,0,2013-07-30 02:35:00
9:55 PM,66.2,65.1,96,30.16,10.0,Calm,Calm,-,N/A,,Clear,0,2013-07-30 02:55:00
10:15 PM,66.7,65.3,95,30.16,10.0,Calm,Calm,-,N/A,,Clear,0,2013-07-30 03:15:00
10:35 PM,66.4,65.3,96,30.15,10.0,Calm,Calm,-,N/A,,Clear,0,2013-07-30 03:35:00
10:55 PM,66.6,64.8,94,30.15,10.0,Calm,Calm,-,N/A,,Clear,0,2013-07-30 03:55:00
11:15 PM,66.7,65.3,95,30.16,10.0,Calm,Calm,-,N/A,,Clear,0,2013-07-30 04:15:00
11:35 PM,65.8,64.9,97,30.16,10.0,Calm,Calm,-,N/A,,Clear,0,2013-07-30 04:35:00
11:55 PM,66.0,64.6,95,30.16,10.0,Calm,Calm,-,N/A,,Clear,0,2013-07-30 04:55:00